Location: Martz Observatory
(42.0083°N, 79.0667°W)
Time: 01:46:44
(UTC-04:00)

Daily predictions for brighter satellites

Satellite Brightness Start Highest point End
(mag) Time Altitude Azimuth Time Altitude Azimuth Time Altitude Azimuth
COSMOS 2428 4.4 00:00:17 10° NW 00:04:35 22° W 00:06:47 18° SW
Cosmos 1455 3.2 00:03:46 10° NNW 00:07:16 36° W 00:07:33 35° WSW
Cosmos 1869 3.9 00:03:24 10° NNW 00:07:19 48° W 00:07:41 46° WSW
Cosmos 2297 Rocket 2.1 00:10:25 44° SSW 00:12:19 90° ESE 00:18:01 10° NNE
H-2A R/B 3.7 00:10:13 20° SW 00:12:25 27° W 00:16:57 10° NW
GEOS 3 Rocket 3.8 00:11:06 40° ESE 00:12:51 64° NE 00:18:00 10° NNW
ATLAS 3B R/B 2.8 00:06:12 10° NNW 00:13:14 68° NE 00:16:06 36° SE
Lacrosse 4 Rocket 1.9 00:14:42 10° NNW 00:19:03 53° ENE 00:19:35 50° E
Meteor 1-26 Rocket 4.3 00:13:40 10° N 00:19:16 66° ENE 00:20:33 51° SE
Cosmos 2219 Rocket 3.2 00:16:11 10° NW 00:21:07 33° WSW 00:22:26 29° SW
Cosmos 1269 Rocket 3.9 00:15:50 10° NNW 00:21:11 89° WSW 00:22:09 61° SSE
Cosmos 1869 Rocket 3.4 00:21:53 79° SSE 00:22:06 83° E 00:26:37 10° N
CZ-2C R/B 4.3 00:19:40 10° NE 00:23:16 19° E 00:23:25 19° E
NOSS 2-3 (E) 4.3 00:27:22 48° ESE 00:27:22 48° ESE 00:32:28 10° NE
Cosmos 389 Rocket 3.2 00:24:05 10° N 00:26:58 49° NNE 00:26:58 49° NNE
ALOS 2 2.9 00:27:29 54° E 00:27:44 55° ENE 00:32:02 10° N
BREEZE-M DEB (TANK) 4.2 00:26:46 10° WNW 00:27:42 24° WNW 00:27:42 24° WNW
Landsat 5 4.1 00:33:06 46° E 00:33:28 48° ENE 00:37:49 10° N
Terra 4.0 00:34:39 13° WSW 00:36:05 15° W 00:38:47 10° NW
H-2A R/B 2.6 00:36:15 10° NNE 00:40:11 67° ENE 00:40:11 67° ENE
Cosmos 44 Rocket 3.7 00:40:52 51° ESE 00:40:52 51° ESE 00:45:46 10° NE
Cosmos 1689 Rocket 3.6 00:42:10 39° NNE 00:42:10 39° NNE 00:44:30 10° N
CZ-4B R/B 2.4 00:44:09 48° NNE 00:44:09 48° NNE 00:46:49 10° N
COSMOS 2455 2.8 00:38:36 10° NNW 00:44:37 74° WSW 00:45:49 57° S
Cosmos 1900 4.3 00:42:43 10° NW 00:47:39 66° WSW 00:47:46 66° SW
Cosmos 1125 Rocket 4.0 00:46:29 40° WSW 00:48:06 56° WNW 00:53:21 10° NNE
Cosmos 2074 Rocket 3.9 00:47:39 53° S 00:49:16 86° E 00:55:36 10° N
Cosmos 1048 Rocket 4.1 00:44:18 10° NNW 00:49:36 63° WSW 00:50:14 58° SW
Cosmos 2237 Rocket 3.3 00:44:50 10° NW 00:49:41 29° WSW 00:50:31 28° WSW
BREEZE-M TANK 3.5 00:39:38 10° W 00:50:35 66° NNW 00:53:49 10° ENE
Meteor 2-3 Rocket 3.7 00:49:35 60° S 00:50:41 83° E 00:56:27 10° NNE
NOSS 2-3 (C) 3.8 00:53:45 72° S 00:54:15 81° ESE 00:59:56 10° NE
SeaSat 1 3.1 00:55:21 40° WSW 00:55:26 40° WSW 01:00:05 10° NW
Okean 1-7 3.5 00:51:38 10° NNW 00:55:37 51° W 00:55:37 51° W
Helios 1B 4.5 00:56:44 85° NNE 00:56:44 85° NNE 01:01:01 10° NNW
Cosmos 1892 3.5 00:58:06 44° NE 00:58:06 44° NE 01:01:01 10° NNE
Cosmos 2327 Rocket 4.5 00:57:08 51° SSW 00:58:52 82° W 01:05:20 10° N
Aureole 2 Rocket 3.9 01:00:59 10° NNW 01:02:51 33° N 01:02:51 33° N
CZ-4C R/B 3.8 00:58:39 10° NNW 01:05:14 43° NE 01:12:08 11° ESE
Helios 1A Rocket 3.1 01:03:11 10° NNE 01:06:57 66° NE 01:06:57 66° NE
Cosmos 1674 Rocket 3.8 01:08:58 10° N 01:13:19 62° ENE 01:13:19 62° ENE
NOSS 2-3 (D) 4.1 01:14:26 55° WSW 01:15:27 73° NW 01:21:10 10° NNE
Cosmos 2154 Rocket 4.1 01:14:44 52° SSE 01:16:10 68° E 01:22:27 10° NNE
ASTEX 1 3.5 01:12:33 10° N 01:17:22 62° W 01:17:51 58° WSW
Cosmos 1607 4.3 01:12:26 10° NNW 01:18:31 57° NE 01:21:20 31° ESE
Cosmos 1782 3.2 01:15:30 10° N 01:18:58 57° NE 01:18:58 57° NE
Cosmos 1238 Rocket 3.8 01:18:22 10° N 01:21:56 37° ENE 01:21:56 37° ENE
Cosmos 158 Rocket 4.1 01:19:32 10° NNW 01:24:44 58° WSW 01:24:59 58° WSW
Cosmos 1825 3.9 01:26:16 25° ENE 01:26:16 25° ENE 01:28:51 10° NNE
Cosmos 921 Rocket 3.5 01:26:24 48° ENE 01:26:24 48° ENE 01:29:55 10° NNE
Cosmos 1340 Rocket 3.2 01:26:58 57° NW 01:26:58 57° NW 01:30:21 10° N
Cosmos 1408 4.4 01:27:35 25° ENE 01:27:35 25° ENE 01:30:09 10° NNE
Cosmos 2184 Rocket 4.5 01:26:37 38° SW 01:28:28 50° WNW 01:34:29 10° N
Cosmos 1932 4.4 01:22:58 10° NW 01:29:22 79° WSW 01:30:56 54° SSE
Cosmos 1908 Rocket 4.0 01:29:40 51° E 01:29:40 51° E 01:33:39 10° NNE
Cosmos 2227 Rocket 4.5 01:25:47 10° W 01:29:36 18° NW 01:33:28 10° N
OceanSat 1 rocket 4.5 01:26:47 10° NNE 01:31:41 89° ESE 01:31:59 79° S
Cosmos 2084 Rocket 3.8 01:33:17 52° NE 01:33:17 52° NE 01:36:15 10° NE
Cosmos 2263 Rocket 3.3 01:35:36 30° ESE 01:36:12 30° ESE 01:41:05 10° NE
FALCON 9 R/B 4.0 01:29:58 10° W 01:36:25 25° WSW 01:36:25 25° WSW
SL-16 R/B 3.5 01:37:00 10° NW 01:41:31 25° WSW 01:41:37 25° WSW
Cosmos 2227 4.4 01:41:57 48° WSW 01:43:20 64° WNW 01:49:00 10° NNE
ATLAS 2AS CENTAUR R/B 4.3 01:36:50 10° WSW 01:43:51 37° NW 01:51:16 10° NNE
Cosmos 2341 Rocket 4.0 01:44:41 53° S 01:46:20 89° W 01:52:46 10° N
CZ-2C R/B 3.3 01:46:35 54° SSE 01:47:59 82° ENE 01:53:41 10° N
Meteor 1-27 Rocket 3.7 01:43:54 10° N 01:49:48 86° E 01:51:04 57° SSE
Sich 1 Rocket 3.6 01:49:59 69° W 01:50:00 69° W 01:54:31 10° N
Cosmos 44 3.4 01:51:01 66° SSW 01:51:48 90° NNW 01:57:17 10° NNE
Cosmos 2251 Rocket 4.0 01:47:38 10° NNW 01:52:41 44° WSW 01:52:48 44° WSW
Lacrosse 4 Rocket 3.8 01:54:39 10° WNW 01:55:56 14° W 01:55:56 14° W
Cosmos 962 Rocket 4.4 01:57:34 52° SSW 01:59:04 72° W 02:05:13 10° N
Cosmos 1862 3.4 02:02:07 74° N 02:02:07 74° N 02:05:48 10° N
Cosmos 1733 Rocket 4.3 02:02:26 29° W 02:02:44 30° WNW 02:06:40 10° NNW
ATLAS 3B R/B 3.9 01:58:01 10° WNW 02:03:14 24° WSW 02:03:20 24° WSW
CZ-2C R/B 2.9 01:58:48 10° N 02:03:53 54° WNW 02:04:56 46° WSW
Cosmos 1356 Rocket 4.5 02:05:49 33° WNW 02:05:49 33° WNW 02:09:24 10° N
Cosmos 1943 3.1 02:01:05 10° NNW 02:06:49 86° ENE 02:08:23 50° SSE
SL-8 Rocket 4.0 02:05:15 49° S 02:07:04 79° E 02:13:25 10° N
Cosmos 1867 4.3 02:02:09 10° NNW 02:07:30 50° NE 02:11:13 19° ESE
USA 238 DEB 4.0 02:01:43 10° NW 02:08:25 49° WSW 02:09:41 44° SSW
USA 238 4.0 02:01:48 10° NW 02:08:31 49° WSW 02:09:49 44° SSW
Coronas F rocket 4.4 02:11:14 12° NW 02:11:14 12° NW 02:11:35 10° NW
Okean 3 3.4 02:07:48 10° N 02:12:06 81° W 02:12:06 81° W
Cosmos 2218 Rocket 4.0 02:10:59 46° SSE 02:12:55 73° E 02:19:14 10° NNE
Cosmos 1603 4.5 02:10:14 10° NW 02:15:18 34° WSW 02:15:27 34° WSW
Cosmos 1606 3.6 02:11:46 10° NNW 02:14:46 40° WNW 02:14:46 40° WNW
Cosmos 1378 Rocket 3.8 02:11:42 10° NNW 02:15:49 54° W 02:15:49 54° W
Meteor 2-13 Rocket 4.4 02:17:20 50° SSW 02:19:01 76° W 02:25:11 10° N
Cosmos 1242 Rocket 3.9 02:16:28 10° N 02:19:38 31° ENE 02:19:51 31° E
Abrixas rocket 4.3 02:29:26 21° E 02:29:26 21° E 02:30:51 10° ENE
Iridium 4 Rocket 4.0 02:23:29 10° N 02:27:59 47° E 02:29:32 35° SE
Cosmos 2366 rocket 3.9 02:27:26 46° S 02:29:26 85° E 02:35:39 10° N
USA 234 3.4 02:23:30 10° ESE 02:30:01 77° NE 02:36:34 10° NW
Okean 2 Rocket 3.1 02:30:45 62° WSW 02:31:10 66° W 02:35:40 10° N
Cosmos 1184 Rocket 3.3 02:34:38 60° NE 02:34:38 60° NE 02:37:31 10° NNE
Cosmos 1782 Rocket 4.0 02:37:33 44° W 02:37:52 45° WNW 02:42:06 10° N
CENTAUR R/B 4.3 02:33:25 10° NNW 02:40:34 40° NE 02:48:10 10° ESE
Meteor 2-8 Rocket 4.4 02:35:12 10° N 02:41:19 82° E 02:43:58 36° SSE
NOSS 3-2 (C) 3.9 02:34:49 10° NW 02:42:22 81° WSW 02:48:50 17° SSE
NPP 4.2 02:40:31 10° NNE 02:45:47 51° E 02:47:49 34° SSE
Cosmos 1727 Rocket 3.9 02:43:55 10° N 02:50:10 76° W 02:52:37 39° S
SL-08 R/B 3.9 02:47:35 26° SE 02:50:10 56° ENE 02:55:00 10° N
CZ-4C R/B 3.1 02:47:08 10° NW 02:54:02 51° WSW 02:57:14 33° S
Cosmos 1975 Rocket 4.3 02:56:37 10° NNW 03:00:19 27° W 03:00:20 27° W
Cosmos 1812 3.5 02:56:56 10° N 03:00:44 48° E 03:02:06 32° SE
Cosmos 1825 4.0 03:01:12 20° WNW 03:01:17 20° WNW 03:04:07 10° NNW
ERS-2 2.7 02:57:57 10° NNE 03:01:35 49° E 03:02:13 44° SE
Cosmos 1300 Rocket 4.2 03:02:44 32° SE 03:04:16 47° E 03:08:28 10° NNE
NOSS 3-4 (A) 3.9 03:01:27 28° WSW 03:04:47 58° NW 03:11:19 10° NNE
NOSS 3-4 (C) 3.9 03:01:33 29° WSW 03:04:52 59° NW 03:11:24 10° NNE
USA 161 3.9 03:04:08 15° ESE 03:05:26 19° ENE 03:07:36 10° NNE
Okean 1 4.0 03:02:36 10° N 03:06:30 49° E 03:08:12 29° SE
NOSS 3-2 (A) 4.2 02:59:17 10° NW 03:06:32 50° WSW 03:10:44 27° S
PSLV R/B 4.0 03:02:48 10° N 03:06:51 46° WNW 03:07:38 41° WSW
Cosmos 1190 Rocket 4.0 03:02:06 10° NNW 03:07:22 84° ENE 03:10:22 26° SSE
CZ-2D R/B 4.1 03:04:25 10° NE 03:08:33 22° E 03:12:41 10° SE
AQUA 4.0 03:03:52 10° NNE 03:08:37 68° ESE 03:10:25 37° S
Cosmos 1536 Rocket 3.5 03:08:01 10° NNW 03:12:22 65° W 03:13:24 48° SSW
Cosmos 1371 Rocket 4.4 03:12:16 35° SW 03:14:16 54° WNW 03:19:33 10° N
RESURS DK-1 2.8 03:13:25 42° WSW 03:14:24 52° WNW 03:18:29 10° NNE
Cosmos 2056 Rocket 3.6 03:13:32 38° SW 03:15:32 71° WNW 03:20:48 10° NNE
Cosmos 1844 Rocket 3.4 03:14:55 25° SSE 03:17:50 45° ESE 03:23:13 10° NE
Cosmos 2263 Rocket 3.0 03:17:17 26° WSW 03:19:56 40° WNW 03:25:18 10° N
Cosmos 1934 Rocket 4.5 03:18:43 19° SSE 03:23:06 56° E 03:29:07 10° NNE
Cosmos 407 Rocket 3.4 03:18:58 10° NNW 03:24:09 87° WSW 03:27:41 21° SSE
IRS-1C 4.1 03:23:12 10° NNE 03:28:35 85° ESE 03:31:24 29° S
COSMOS 2406 3.2 03:23:54 10° NNW 03:29:42 81° WSW 03:34:45 14° SSE
Cosmos 2151 Rocket 4.5 03:28:41 30° WSW 03:29:50 35° WNW 03:33:57 10° N
Meteor 1-25 Rocket 4.3 03:27:44 32° SSW 03:30:27 67° WNW 03:36:14 10° N
Cosmos 676 Rocket 4.0 03:25:36 10° NNW 03:30:49 81° ENE 03:35:31 13° SSE
Okean 1-7 Rocket 3.6 03:29:21 10° N 03:33:57 86° E 03:36:41 24° S
Cosmos 1000 Rocket 4.4 03:28:34 10° N 03:34:43 77° W 03:38:56 21° S
Cosmos 2278 Rocket 3.5 03:32:46 14° SSE 03:36:55 32° ESE 03:41:53 10° NE
SL-27 R/B 2.4 03:33:53 10° NNW 03:37:33 78° WSW 03:39:04 33° S
SL-16 R/B 3.1 03:32:51 10° SSE 03:38:56 58° ENE 03:45:03 10° N
ATLAS 5 CENTAUR R/B 4.1 03:37:44 10° NNW 03:43:05 35° NE 03:48:47 10° ESE
Okean 1 Rocket 3.1 03:41:19 32° SSW 03:43:17 72° W 03:47:45 10° N
SAR-Lupe-3 4.4 03:42:08 32° S 03:43:40 79° WSW 03:47:14 10° NNW
IRS-1D 4.1 03:39:04 10° NNE 03:44:04 53° E 03:47:47 17° S
Cosmos 1602 4.0 03:45:03 25° S 03:47:08 64° E 03:50:58 10° NNE
Okean O Rocket 4.1 03:44:36 10° NE 03:47:25 17° E 03:50:13 10° SE
UNK 4.2 03:46:40 21° SSW 03:51:54 47° SSE 03:55:17 10° ENE
NOSS 2-2 (E) 4.0 03:51:36 25° S 03:53:50 53° ESE 03:58:32 10° NE
Cosmos 1605 Rocket 4.2 03:49:43 14° S 03:54:59 71° E 04:01:13 10° NNE
BREEZE-M DEB (TANK) 4.3 03:48:03 10° W 03:55:59 35° NNW 03:58:58 10° NE
Cosmos 1821 Rocket 4.1 03:52:02 22° SSW 03:56:21 69° W 04:02:45 10° N
GP-B 3.7 03:52:43 10° NNW 03:56:54 41° W 03:58:56 25° SW
Resurs 1-4 Rocket 2.6 03:51:40 10° NNE 03:56:55 58° E 04:01:31 13° S
Meteor 2-4 Rocket 4.3 03:51:53 10° N 03:57:13 54° ENE 04:02:26 10° SSE
Cosmos 2123 Rocket 4.0 03:51:45 10° N 03:58:08 89° E 04:04:27 10° S
Cosmos 1954 Rocket 3.9 03:53:36 10° NNW 03:58:46 74° WSW 04:03:55 10° SSE
Cosmos 1461 4.2 03:57:06 17° S 04:00:18 38° ESE 04:04:36 10° NE
Cosmos 1536 3.0 04:00:51 18° S 04:03:46 72° E 04:07:50 10° NNE
Abrixas rocket 3.3 04:02:23 16° W 04:04:46 42° NNW 04:08:00 10° NE
Meteor 2-14 Rocket 4.4 04:03:36 17° SSW 04:08:22 77° W 04:14:27 10° N
Cosmos 1455 Rocket 4.2 04:05:15 10° SSE 04:09:25 41° E 04:13:37 10° NNE
UNKNOWN OBJECT B 3.5 04:07:59 10° NNE 04:11:59 53° E 04:15:48 11° S
USA 234 3.9 04:07:46 10° S 04:13:23 30° SW 04:19:02 10° WNW
Cosmos 1025 Rocket 2.9 04:10:14 10° NNW 04:14:31 74° W 04:18:38 11° S
Gbstr 26 Del rocket 2.6 04:12:40 22° SW 04:15:06 85° SE 04:18:50 10° NE
Cosmos 1633 2.5 04:13:02 18° S 04:15:40 85° E 04:19:18 10° N
Cosmos 614 Rocket 4.3 04:10:58 10° NNW 04:16:09 67° ENE 04:21:14 10° SSE
Meteor 2-15 4.5 04:12:42 10° NNW 04:18:49 67° W 04:24:54 10° S
ARIANE 5 R/B 2.5 04:14:30 10° N 04:19:27 65° WNW 04:23:26 16° SSW
ADEOS 4.3 04:14:58 10° N 04:19:50 40° WNW 04:23:30 16° SW
Cosmos 1356 3.6 04:18:16 15° S 04:21:11 73° E 04:24:44 10° NNE
Cosmos 1452 Rocket 4.2 04:18:09 18° SW 04:21:45 42° WNW 04:26:45 10° N
Meteor 1-19 Rocket 4.3 04:16:28 10° NNW 04:22:14 67° W 04:28:00 10° S
MTI 3.9 04:19:38 10° SSE 04:22:56 82° ENE 04:26:15 10° N
SME Rocket 2.8 04:20:31 10° S 04:24:14 72° WSW 04:28:18 10° NNW
COSMOS 2487 2.5 04:26:54 10° NNW 04:30:29 64° WSW 04:34:04 10° S
CENTAUR R/B 3.1 04:23:58 10° NW 04:31:43 61° WSW 04:39:50 10° SSE
UNK 3.9 04:27:46 10° S 04:32:15 53° W 04:36:49 10° NNW
EO 1 Del DPAF 3.7 04:29:12 11° S 04:32:41 44° W 04:36:26 10° NNW
OPS 6432 4.2 04:30:40 17° SSW 04:33:09 88° SE 04:36:16 10° NE
Cosmos 1420 Rocket 4.2 04:29:24 15° SSW 04:33:51 64° WNW 04:39:08 10° NNE
Tiangong 1 2.9 04:34:49 14° SSW 04:34:49 14° SSW 04:35:53 10° S
Cosmos 1544 Rocket 3.6 04:30:36 12° SSW 04:34:46 74° W 04:39:11 10° N
ERS-2 4.5 04:33:26 10° NW 04:34:57 12° WNW 04:36:28 10° W
Meteor 1-11 Rocket 4.3 04:30:22 14° SSW 04:35:16 48° WNW 04:41:04 10° N
USA 161 3.4 04:35:20 14° WSW 04:35:48 15° W 04:37:30 10° WNW
MOS 1-B 4.4 04:33:47 10° N 04:39:35 73° WNW 04:45:22 10° SSW
Cosmos 1833 Rocket 4.3 04:36:07 10° N 04:41:21 39° ENE 04:46:34 10° SE
Cosmos 1400 Rocket 3.1 04:44:58 11° SSW 04:48:31 48° WNW 04:52:20 10° N
CZ-2D R/B 2.5 04:43:37 10° N 04:48:53 51° WNW 04:54:09 10° SW
Cosmos 2100 Rocket 4.2 04:43:14 10° S 04:49:28 82° E 04:55:48 10° N
Cosmos 1459 Rocket 4.2 04:43:34 10° S 04:49:55 78° E 04:56:14 10° N
Cosmos 1892 Rocket 4.1 04:52:13 10° NNW 04:56:15 37° W 05:00:15 10° SSW
Cosmos 1140 Rocket 4.2 04:51:56 10° NW 04:56:29 33° W 05:01:02 10° SSW
PAYLOAD B 4.5 04:52:03 10° NNE 04:57:40 76° ESE 05:03:15 10° S
Cosmos 1844 Rocket 3.9 04:57:03 10° WSW 05:01:54 28° NW 05:06:46 10° N
NOSS 2-2 (D) 4.4 05:00:01 10° WSW 05:03:59 41° NW 05:08:40 10° NNE
CZ-4B R/B 3.5 05:00:10 10° NNE 05:04:44 72° ESE 05:09:13 10° S
Timation 2 Rocket 3.9 04:59:05 10° NNW 05:05:10 64° WSW 05:11:04 10° S
BREEZE-M DEB (TANK) 2.5 05:03:05 10° SW 05:05:41 41° SSE 05:08:54 10° ENE
Okean-O 3.8 05:06:34 10° NNE 05:10:49 44° E 05:15:03 10° S
Cosmos 2061 Rocket 4.1 05:07:19 10° SSW 05:13:38 72° W 05:20:02 10° N
